Hourly Weather Mahackala

Today, 5 August, Wednesday

Time Temperature Precipitation Wind Pressure Humidity
00:00 +15°C° 0 mm 1 mps 671 mmHg 73%
01:00 +14°C° 0 mm 2 mps 670 mmHg 74%
02:00 +14°C° 0 mm 2 mps 670 mmHg 74%
03:00 +14°C° 0 mm 2 mps 670 mmHg 73%
04:00 +14°C° 0 mm 2 mps 670 mmHg 73%
05:00 +15°C° 0 mm 2 mps 670 mmHg 72%
06:00 +15°C° 0 mm 2 mps 670 mmHg 71%
07:00 +17°C° 0 mm 2 mps 671 mmHg 64%
08:00 +19°C° 0 mm 2 mps 671 mmHg 56%
09:00 +21°C° 0 mm 2 mps 671 mmHg 47%
10:00 +21°C° 0 mm 2 mps 671 mmHg 45%
11:00 +22°C° 0 mm 3 mps 671 mmHg 42%
12:00 +24°C° 0 mm 3 mps 671 mmHg 40%
13:00 +23°C° 0 mm 4 mps 671 mmHg 40%
14:00 +23°C° 0 mm 4 mps 671 mmHg 41%
15:00 +23°C° 0 mm 4 mps 671 mmHg 41%
16:00 +22°C° 0 mm 4 mps 671 mmHg 44%
17:00 +21°C° 0 mm 3 mps 671 mmHg 47%
18:00 +20°C° 0 mm 3 mps 671 mmHg 49%
19:00 +19°C° 0 mm 2 mps 671 mmHg 52%
20:00 +17°C° 0 mm 2 mps 670 mmHg 56%
21:00 +16°C° 0 mm 2 mps 670 mmHg 59%
22:00 +15°C° 0 mm 2 mps 670 mmHg 61%
23:00 +15°C° 0 mm 2 mps 670 mmHg 63%

Tomorrow, 6 August, Thursday

Time Temperature Precipitation Wind Pressure Humidity
00:00 +14°C° 0 mm 2 mps 670 mmHg 64%
01:00 +14°C° 0 mm 2 mps 670 mmHg 65%
02:00 +14°C° 0 mm 2 mps 670 mmHg 66%
03:00 +14°C° 0 mm 2 mps 670 mmHg 67%
04:00 +14°C° 0 mm 2 mps 670 mmHg 66%
05:00 +15°C° 0 mm 2 mps 671 mmHg 65%
06:00 +15°C° 0 mm 2 mps 671 mmHg 64%
07:00 +17°C° 0 mm 3 mps 672 mmHg 59%
08:00 +19°C° 0 mm 3 mps 672 mmHg 53%
09:00 +21°C° 0 mm 4 mps 673 mmHg 47%
10:00 +22°C° 0 mm 4 mps 673 mmHg 46%
11:00 +22°C° 0 mm 4 mps 674 mmHg 46%
12:00 +23°C° 0 mm 5 mps 674 mmHg 45%
13:00 +23°C° 0 mm 5 mps 674 mmHg 45%
14:00 +25°C° 0 mm 5 mps 674 mmHg 45%
15:00 +25°C° 0 mm 5 mps 674 mmHg 44%
16:00 +23°C° 0 mm 4 mps 674 mmHg 49%
17:00 +22°C° 0 mm 3 mps 674 mmHg 54%
18:00 +21°C° 0 mm 2 mps 673 mmHg 58%
19:00 +20°C° 0 mm 2 mps 673 mmHg 62%
20:00 +19°C° 0 mm 2 mps 673 mmHg 65%
21:00 +17°C° 0 mm 2 mps 673 mmHg 69%
22:00 +17°C° 0 mm 2 mps 673 mmHg 70%
23:00 +17°C° 0 mm 2 mps 673 mmHg 70%

Day after tomorrow, 7 August, Friday

Time Temperature Precipitation Wind Pressure Humidity
00:00 +16°C° 0 mm 2 mps 673 mmHg 71%
01:00 +16°C° 0 mm 2 mps 673 mmHg 69%
02:00 +16°C° 0 mm 2 mps 673 mmHg 68%
03:00 +16°C° 0 mm 2 mps 673 mmHg 67%
04:00 +16°C° 0 mm 2 mps 673 mmHg 66%
05:00 +16°C° 0 mm 2 mps 673 mmHg 64%
06:00 +17°C° 0 mm 2 mps 673 mmHg 63%
07:00 +19°C° 0 mm 2 mps 674 mmHg 58%
08:00 +21°C° 0 mm 2 mps 674 mmHg 52%
09:00 +24°C° 0 mm 2 mps 675 mmHg 47%
10:00 +25°C° 0 mm 3 mps 675 mmHg 45%
11:00 +26°C° 0 mm 3 mps 675 mmHg 43%
12:00 +27°C° 0 mm 4 mps 675 mmHg 42%
13:00 +26°C° 0.3 mm 4 mps 675 mmHg 43%
14:00 +26°C° 0.3 mm 3 mps 675 mmHg 45%
15:00 +26°C° 0.3 mm 3 mps 674 mmHg 46%
16:00 +25°C° 0 mm 2 mps 674 mmHg 49%
17:00 +25°C° 0 mm 2 mps 674 mmHg 52%
18:00 +24°C° 0 mm 1 mps 674 mmHg 55%
19:00 +23°C° 0 mm 1 mps 674 mmHg 58%
20:00 +21°C° 0 mm 1 mps 674 mmHg 61%
21:00 +20°C° 0 mm 1 mps 673 mmHg 63%
22:00 +18°C° 0 mm 2 mps 673 mmHg 64%
23:00 +18°C° 0 mm 2 mps 673 mmHg 65%

8 August, Saturday

Time Temperature Precipitation Wind Pressure Humidity
00:00 +18°C° 0 mm 2 mps 672 mmHg 66%
01:00 +17°C° 0 mm 3 mps 672 mmHg 67%
02:00 +17°C° 0 mm 3 mps 672 mmHg 68%
03:00 +17°C° 0 mm 3 mps 672 mmHg 69%
04:00 +17°C° 0 mm 3 mps 672 mmHg 68%
05:00 +17°C° 0 mm 3 mps 672 mmHg 66%
06:00 +18°C° 0 mm 3 mps 672 mmHg 65%
07:00 +20°C° 0 mm 3 mps 672 mmHg 57%
08:00 +23°C° 0 mm 2 mps 673 mmHg 50%
09:00 +26°C° 0 mm 2 mps 673 mmHg 42%
10:00 +27°C° 0 mm 2 mps 673 mmHg 39%
11:00 +27°C° 0 mm 2 mps 673 mmHg 36%
12:00 +28°C° 0 mm 2 mps 673 mmHg 33%
13:00 +28°C° 0 mm 2 mps 673 mmHg 34%
14:00 +28°C° 0 mm 2 mps 673 mmHg 35%
15:00 +28°C° 0 mm 3 mps 672 mmHg 37%
16:00 +27°C° 0 mm 2 mps 672 mmHg 42%
17:00 +26°C° 0 mm 2 mps 672 mmHg 47%
18:00 +25°C° 0 mm 2 mps 671 mmHg 52%
19:00 +23°C° 0 mm 2 mps 671 mmHg 56%
20:00 +22°C° 0 mm 1 mps 671 mmHg 60%
21:00 +20°C° 0 mm 1 mps 671 mmHg 65%
22:00 +20°C° 0 mm 1 mps 670 mmHg 65%
23:00 +19°C° 0 mm 1 mps 670 mmHg 65%

9 August, Sunday

Time Temperature Precipitation Wind Pressure Humidity
00:00 +19°C° 0 mm 1 mps 670 mmHg 65%
01:00 +18°C° 0 mm 2 mps 670 mmHg 65%
02:00 +18°C° 0 mm 2 mps 669 mmHg 65%
03:00 +18°C° 0 mm 2 mps 669 mmHg 66%
04:00 +18°C° 0 mm 2 mps 669 mmHg 65%
05:00 +18°C° 0 mm 2 mps 670 mmHg 65%
06:00 +19°C° 0 mm 2 mps 670 mmHg 64%
07:00 +22°C° 0 mm 1 mps 670 mmHg 58%
08:00 +24°C° 0 mm 1 mps 670 mmHg 51%
09:00 +26°C° 0 mm 1 mps 671 mmHg 45%
10:00 +27°C° 0 mm 2 mps 671 mmHg 44%
11:00 +27°C° 0 mm 2 mps 671 mmHg 42%
12:00 +28°C° 0 mm 3 mps 671 mmHg 41%
13:00 +27°C° 0 mm 3 mps 671 mmHg 42%
14:00 +27°C° 0 mm 3 mps 670 mmHg 43%
15:00 +27°C° 0 mm 3 mps 670 mmHg 45%
16:00 +26°C° 0.1 mm 3 mps 670 mmHg 49%
17:00 +25°C° 0.1 mm 3 mps 670 mmHg 53%
18:00 +24°C° 0.1 mm 2 mps 670 mmHg 57%
19:00 +21°C° 0.4 mm 2 mps 669 mmHg 63%
20:00 +21°C° 0.4 mm 1 mps 669 mmHg 69%
21:00 +19°C° 0.4 mm 1 mps 669 mmHg 75%
22:00 +19°C° 0.2 mm 1 mps 669 mmHg 76%
23:00 +19°C° 0.2 mm 1 mps 669 mmHg 77%

10 August, Monday

Time Temperature Precipitation Wind Pressure Humidity
00:00 +18°C° 0.2 mm 1 mps 669 mmHg 78%
01:00 +18°C° 0 mm 1 mps 669 mmHg 78%
02:00 +18°C° 0 mm 1 mps 669 mmHg 78%
03:00 +18°C° 0 mm 1 mps 669 mmHg 78%
04:00 +18°C° 0 mm 1 mps 669 mmHg 76%
05:00 +19°C° 0 mm 1 mps 669 mmHg 75%
06:00 +19°C° 0 mm 1 mps 669 mmHg 73%
07:00 +21°C° 0 mm 1 mps 670 mmHg 68%
08:00 +21°C° 0 mm 2 mps 670 mmHg 64%
09:00 +24°C° 0 mm 2 mps 671 mmHg 59%
10:00 +24°C° 0 mm 3 mps 671 mmHg 60%
11:00 +24°C° 0 mm 3 mps 671 mmHg 60%
12:00 +25°C° 0 mm 3 mps 671 mmHg 61%
13:00 +24°C° 0.1 mm 3 mps 671 mmHg 63%
14:00 +24°C° 0.1 mm 3 mps 670 mmHg 66%
15:00 +24°C° 0.1 mm 3 mps 670 mmHg 69%
16:00 +22°C° 0.4 mm 3 mps 670 mmHg 73%
17:00 +21°C° 0.4 mm 2 mps 670 mmHg 78%
18:00 +20°C° 0.4 mm 2 mps 670 mmHg 83%
19:00 +20°C° 0.7 mm 1 mps 670 mmHg 86%
20:00 +20°C° 0.7 mm 1 mps 670 mmHg 89%
21:00 +19°C° 0.7 mm 1 mps 671 mmHg 93%
22:00 +17°C° 0.3 mm 0 mps 671 mmHg 92%
23:00 +17°C° 0.3 mm 0 mps 670 mmHg 92%
Show more